Location: Gro�bocka
(50.8204°N, 11.9702°E)
Time: 01:38:50
(UTC+00:00)

ERS-2 - Pass Details

Date: 29 October 2020
Orbit: 493 x 498 km, 98.6° (Epoch: 23 November)

Event Time Altitude Azimuth Distance (km) Brightness Sun altitude
Rises 17:10:23 0° 12° (NNE) 2,590 5.6 -12.9°
Reaches altitude 10° 17:12:29 10° 10° (N) 1,703 4.7 -13.2°
Maximum altitude 17:16:06 65° 289° (WNW) 550 2.5 -13.8°
Drops below altitude 10° 17:19:42 10° 207° (SSW) 1,689 5.2 -14.4°
Sets 17:21:46 0° 204° (SSW) 2,568 6.1 -14.7°
